Theta_e
318 318 318 318 315 315 313 312 307 305 304 308 308 308 308 308 309 308 306 306 305 305 305 305 306 306 308 309 307 306 307 306 306 305 305 305 306 307 307 305 306 307 306 303 302 301 301
318 317 318 313 312 311 309 309 309 307 304 307 308 307 308 308 308 308 308 307 306 306 306 306 306 307 311 312 306 308 307 306 306 305 304 304 305 304 304 304 306 305 304 303 302 303 302
315 316 313 310 309 309 309 309 308 308 308 304 304 306 308 308 308 307 308 308 307 305 305 306 306 308 307 308 306 308 307 306 305 305 305 305 306 307 305 305 303 305 309 308 303 303 305
314 312 310 310 309 309 308 308 308 307 307 307 305 306 308 308 308 307 307 308 307 306 305 306 306 309 310 305 307 308 307 306 306 305 305 306 306 304 305 303 306 308 306 307 306 305 305
315 311 310 310 309 309 308 308 308 307 306 307 306 306 307 308 308 307 307 306 306 306 305 306 309 309 311 307 307 306 307 306 306 305 307 308 306 305 305 309 307 303 307 309 307 304 305
312 311 310 309 309 308 308 308 308 307 306 306 307 306 307 308 307 308 308 305 305 308 306 306 307 308 308 307 306 307 307 307 306 307 309 309 304 304 301 304 306 307 309 308 308 305 304
311 310 309 309 308 308 308 308 308 308 307 306 307 306 307 308 307 308 309 305 305 308 306 308 307 307 306 306 306 307 306 307 308 307 310 309 309 309 306 305 306 307 308 308 306 304 305
311 310 309 308 308 308 308 308 308 308 307 306 306 306 307 308 307 308 309 306 306 307 309 304 304 305 304 306 308 306 306 310 310 310 309 306 308 304 302 304 306 307 309 306 305 304 305
310 310 308 308 308 308 308 308 308 308 308 307 306 306 307 309 308 307 306 304 306 307 308 309 305 306 305 306 307 306 305 307 309 309 307 305 304 301 304 305 307 307 308 309 307 304 303
310 309 308 308 308 308 308 307 307 308 308 307 306 306 307 310 306 305 303 306 307 308 306 309 308 307 307 306 309 305 304 307 307 308 306 305 301 304 305 307 305 309 305 306 307 305 304
309 308 307 308 308 308 307 307 307 308 308 308 306 306 307 308 306 302 303 308 309 308 307 308 310 306 306 308 307 307 305 307 308 308 305 305 303 305 307 307 305 306 304 305 303 298 298
308 307 307 308 307 307 307 307 307 309 308 308 306 307 307 308 308 307 306 309 310 306 304 311 308 307 307 308 307 307 308 304 304 306 303 302 299 302 304 302 302 301 306 302 301 301 304
307 307 307 307 307 307 307 307 307 308 309 308 307 308 307 307 305 308 310 306 305 306 307 308 308 305 305 306 307 306 306 301 305 305 306 308 305 300 301 306 305 303 303 302 302 302 307
307 307 306 306 306 307 307 307 307 308 309 308 309 308 308 305 305 310 310 303 306 304 310 306 306 306 307 306 306 306 306 304 305 301 299 302 304 304 299 302 303 306 299 302 299 304 304
307 306 305 306 306 306 306 306 307 308 309 309 310 310 309 306 304 311 302 302 302 302 305 304 304 306 305 307 305 304 304 299 302 303 303 304 308 298 297 299 301 305 306 300 298 300 299
305 304 305 304 303 303 303 304 306 307 309 309 309 309 310 309 306 305 301 305 306 303 302 304 306 305 305 304 306 305 303 299 305 304 301 305 304 300 298 298 299 300 299 304 296 301 307
304 303 301 301 300 300 300 300 303 307 309 310 307 305 310 308 306 298 301 298 306 300 301 304 304 305 305 305 305 304 302 302 303 302 301 295 300 302 300 301 299 299 295 297 298 300 303
301 299 299 298 298 297 297 297 298 305 309 309 301 301 309 307 302 296 302 304 301 301 300 301 301 303 304 304 305 304 303 304 299 301 304 301 297 300 304 290 286 293 296 295 304 298 305
296 295 295 295 295 295 295 296 297 302 310 309 305 306 306 305 301 302 303 304 302 302 302 302 302 302 303 304 303 302 304 301 299 302 299 296 299 299 302 296 294 294 288 287 296 297 306
296 295 294 294 294 294 295 295 297 300 309 308 301 302 302 300 299 302 306 305 307 301 301 301 301 301 302 302 301 302 304 303 300 301 305 303 299 300 304 301 296 298 292 295 296 306 301
297 295 293 293 293 294 294 295 296 300 309 308 299 301 302 301 305 305 304 305 307 308 303 300 302 301 299 301 304 304 304 304 302 302 303 301 301 303 303 303 300 301 296 300 304 304 310
296 296 295 293 292 292 293 294 295 297 306 305 303 302 299 302 304 305 302 304 307 306 305 307 305 305 305 305 305 307 304 306 306 302 302 298 302 298 297 303 301 304 303 297 302 305 306
298 296 294 295 293 292 292 293 293 294 297 300 300 303 300 300 302 303 303 305 301 299 303 302 303 304 305 303 299 299 299 301 302 304 302 300 303 305 306 305 305 305 302 304 299 289 296
297 296 297 295 293 292 291 291 292 292 293 297 296 297 295 299 298 300 297 298 299 299 299 301 300 300 299 294 295 296 296 297 297 299 300 304 303 305 305 302 301 294 285 285 290 292 294
297 297 297 294 291 290 290 290 291 292 292 292 295 295 288 292 295 297 296 297 294 295 296 298 299 295 291 295 297 296 295 296 297 295 297 300 303 305 305 300 301 300 296 297 293 295 291
297 297 296 294 292 291 291 290 290 290 292 292 292 294 290 290 293 295 295 295 292 293 290 295 292 291 292 294 296 292 294 297 296 294 293 298 298 303 296 297 298 293 296 296 296 298 296
295 294 292 292 293 293 293 292 291 290 291 292 292 292 291 287 291 293 290 291 293 289 287 288 288 291 291 292 295 293 293 295 294 297 296 289 287 299 299 297 294 296 297 295 298 295 291
295 295 294 294 294 294 294 291 290 290 290 292 291 292 291 283 290 292 292 290 290 288 286 284 285 286 286 290 295 294 295 288 293 293 290 289 288 288 291 287 292 295 295 295 291 290 288
294 294 292 290 291 292 293 293 290 290 290 291 291 291 291 289 288 292 293 293 292 290 287 285 284 286 288 289 292 290 292 281 281 288 288 287 289 289 292 292 292 293 293 290 289 288 287
Wind_Speed
9 10 11 11 11 12 12 11 10 8 6 5 6 8 8 7 5 5 4 4 4 4 3 2 2 2 1 1 1 7 8 6 3 2 3 0 2 2 3 3 2 2 1 2 1 2 1
10 10 12 11 12 13 15 15 14 10 8 6 6 8 10 8 8 7 6 5 5 5 4 3 2 1 2 0 1 9 7 4 6 3 3 4 2 2 5 2 2 2 2 2 2 3 2
9 10 11 11 13 14 15 16 15 13 10 7 7 9 11 9 8 6 5 6 5 5 3 2 1 2 1 2 1 8 7 4 6 3 2 2 2 2 2 3 1 2 2 2 5 5 2
8 9 10 11 12 13 15 15 15 14 13 10 9 10 12 9 9 7 6 6 4 1 2 1 1 1 2 1 2 6 7 2 3 4 4 3 5 6 3 1 5 4 4 3 1 7 3
9 8 9 10 12 13 15 16 17 15 15 13 10 10 12 11 7 7 6 4 6 0 3 1 1 1 1 1 2 5 7 2 1 3 4 4 4 4 4 3 4 6 1 1 6 4 4
8 7 9 11 12 13 15 17 18 17 16 14 10 9 11 10 6 7 3 3 5 2 2 1 0 2 1 0 2 3 4 3 1 2 2 5 5 3 4 4 3 3 2 2 5 5 5
6 7 8 10 12 14 16 17 18 18 17 15 11 9 10 9 6 4 2 3 3 2 5 1 0 1 1 3 1 4 5 1 1 6 1 3 4 3 3 2 2 4 2 3 4 2 5
5 6 8 10 12 13 15 17 19 19 18 17 12 9 10 9 3 3 1 3 2 1 1 0 1 1 1 2 2 3 6 2 1 3 1 5 2 3 5 3 3 2 0 4 4 2 0
6 7 9 10 12 14 16 18 19 20 19 18 12 10 9 6 1 3 6 4 3 1 2 1 1 1 1 2 1 3 4 1 3 3 1 4 1 3 2 2 2 1 3 1 3 6 2
7 8 9 10 12 13 16 18 19 21 20 18 12 9 7 2 1 2 3 2 1 1 4 3 2 2 1 2 1 1 2 2 4 4 3 2 1 3 2 1 4 3 2 2 2 5 2
6 8 10 11 12 14 16 18 20 20 21 18 11 8 5 5 3 3 1 1 1 1 4 1 1 0 0 1 1 2 3 1 4 4 4 3 4 2 2 1 2 2 2 3 3 4 4
6 8 10 11 12 14 16 19 20 21 21 16 9 7 4 2 4 3 1 0 0 6 5 2 1 2 2 2 2 2 2 6 3 4 4 2 0 1 2 3 3 5 4 5 4 2 2
5 7 9 11 13 15 18 20 21 22 22 13 5 7 6 5 2 2 1 2 5 4 2 2 1 4 2 3 2 3 2 3 4 2 2 1 1 1 1 3 2 4 4 3 5 3 5
6 8 10 11 14 16 18 20 22 23 22 11 3 1 8 9 4 2 1 5 2 2 2 1 1 2 1 3 0 2 1 2 2 4 3 4 5 2 3 3 6 3 6 5 6 3 3
7 9 10 12 15 18 20 21 22 23 22 10 0 2 4 9 3 2 5 4 6 4 1 4 2 1 2 1 1 3 3 3 4 6 7 4 3 1 3 1 2 2 3 3 6 1 3
7 9 11 14 17 19 21 22 23 22 21 8 1 2 3 8 3 3 5 5 2 0 1 1 2 0 2 2 1 1 2 3 1 1 0 2 2 1 1 2 3 3 2 3 3 1 5
9 11 14 16 18 20 22 23 24 22 20 6 1 3 3 8 1 5 3 6 2 1 1 1 3 2 3 2 1 2 2 2 1 3 3 4 3 1 2 6 8 1 1 3 3 4 5
11 13 15 18 19 20 22 23 24 22 18 4 3 2 5 2 3 1 2 2 1 1 0 1 1 3 3 1 3 3 4 1 1 4 4 0 5 3 5 1 3 1 5 4 4 5 3
14 16 19 20 21 22 23 24 22 20 16 3 2 1 4 2 1 1 2 0 1 1 1 1 0 1 1 1 2 1 2 2 1 0 4 4 1 3 7 4 3 2 3 3 3 3 8
16 18 20 22 24 25 25 26 24 17 12 3 3 2 4 4 1 4 4 4 3 3 3 3 3 2 2 1 0 3 1 2 1 0 4 3 1 7 9 6 5 2 4 5 5 4 4
19 20 22 25 26 28 29 28 27 18 10 2 4 0 1 2 4 4 3 4 4 6 4 6 4 5 2 3 5 3 2 6 2 3 3 4 5 5 6 7 4 8 6 9 11 11 14
21 22 23 26 28 30 31 31 31 24 8 9 3 3 2 2 2 3 6 5 4 5 5 4 4 5 1 2 3 4 5 3 6 1 3 0 4 1 4 8 10 19 11 9 17 18 16
21 23 24 26 29 32 32 32 33 33 15 8 5 2 3 5 3 3 2 2 2 3 2 6 3 3 4 1 5 10 9 8 8 4 3 3 1 2 14 3 7 11 9 15 7 2 6
22 22 24 26 29 31 33 34 33 33 29 10 6 2 3 1 3 2 3 2 4 2 2 3 5 3 2 6 7 7 6 8 6 8 5 6 2 2 10 3 6 5 2 3 3 2 3
21 22 23 25 27 29 31 32 32 29 24 27 12 4 3 2 1 0 2 2 2 4 3 2 2 1 7 5 4 5 4 3 3 3 3 3 2 3 3 4 9 1 4 3 2 4 1
21 21 22 24 26 28 29 29 29 28 22 16 23 8 4 5 3 2 2 1 2 1 5 1 2 5 4 2 3 3 2 3 5 6 3 2 1 2 2 3 5 3 2 2 2 4 5
19 20 21 23 24 25 26 27 26 26 24 16 15 14 3 3 3 4 2 3 2 1 2 3 5 5 3 2 2 2 3 1 2 3 3 3 3 5 7 5 6 2 2 2 2 3 2
19 19 20 21 22 23 24 26 25 24 22 14 10 15 5 3 2 4 4 4 2 2 3 3 3 3 3 3 2 1 2 3 2 4 4 4 3 3 1 1 7 3 2 3 4 2 4
18 19 20 21 22 23 23 23 23 21 18 14 5 12 7 3 2 4 5 5 3 5 4 2 3 2 3 3 2 1 3 1 2 3 2 3 6 3 7 6 4 4 6 3 7 6 5
Wind_Direction
18 11 10 6 6 4 3 2 2 2 1 1 355 355 348 337 328 315 308 320 306 307 315 301 297 324 203 254 336 347 350 12 26 67 52 51 92 118 126 112 79 81 129 82 97 28 326
16 12 6 16 9 13 14 13 8 4 354 341 338 347 348 341 331 312 290 287 289 292 277 275 275 201 202 265 32 1 4 35 40 66 47 28 121 135 105 82 95 132 90 85 46 14 53
15 10 16 21 17 14 11 9 8 8 358 343 335 345 345 340 334 323 297 273 289 299 240 245 245 196 95 183 39 13 15 42 24 55 94 45 97 60 112 99 140 103 110 105 26 353 359
7 12 25 19 14 10 8 5 3 5 3 352 345 344 345 336 327 318 303 275 253 340 159 261 177 204 161 114 26 18 26 41 25 61 91 86 78 101 53 133 25 54 54 17 24 356 344
1 28 17 11 9 7 6 5 3 1 0 354 345 341 345 336 328 329 328 306 194 318 222 266 230 193 214 114 51 17 18 357 34 80 64 90 71 87 35 75 16 11 240 320 321 46 326
1 17 12 5 4 4 4 3 1 360 357 351 343 338 345 342 341 330 342 110 162 161 156 135 293 22 8 74 356 9 359 5 85 101 42 48 49 69 41 70 225 255 322 279 253 339 359
6 7 8 3 1 2 3 2 1 359 354 350 344 340 341 341 337 344 144 143 28 335 54 212 149 115 356 339 52 26 358 28 130 55 126 6 74 212 195 134 109 111 126 260 265 31 338
5 359 2 1 1 1 2 1 0 359 355 352 342 339 338 331 314 356 161 87 115 160 316 16 85 59 48 26 44 4 359 172 161 178 112 26 211 146 113 89 98 87 6 278 283 31 62
358 356 359 359 360 1 1 0 358 357 355 349 343 338 339 339 180 36 78 102 95 101 116 12 48 35 359 28 86 310 11 68 85 131 64 160 94 120 107 90 115 205 200 257 237 323 59
356 356 358 359 360 360 359 358 356 355 353 348 341 341 347 358 152 74 62 71 55 105 61 284 25 21 24 81 355 330 21 111 38 169 117 92 58 134 105 211 133 264 79 90 14 36 279
355 355 358 360 1 2 0 358 357 355 351 347 344 351 357 24 112 70 104 71 99 109 12 302 12 357 20 127 106 22 25 357 155 140 105 237 155 156 176 227 176 199 64 77 85 85 49
1 358 1 1 3 2 1 0 358 355 352 352 355 3 6 35 60 74 59 63 4 44 261 353 21 328 348 19 21 336 55 46 133 99 52 91 340 79 139 81 73 142 83 48 54 87 17
10 4 6 6 6 5 3 2 1 357 353 351 6 45 50 51 84 43 98 38 36 129 344 341 342 30 348 327 3 36 26 4 168 91 224 105 184 66 48 102 39 81 65 333 347 4 225
26 12 7 8 6 3 2 1 1 358 355 353 29 89 55 52 38 82 88 52 178 225 236 348 320 316 263 18 252 349 25 289 222 82 94 164 306 155 358 150 182 173 147 155 228 228 273
32 18 12 9 6 1 360 358 358 356 355 352 101 86 48 9 26 102 76 70 217 193 344 347 303 12 317 26 257 11 219 202 209 182 168 149 254 129 53 96 75 182 186 139 104 72 40
39 24 15 11 8 4 1 358 355 354 353 350 171 104 33 357 17 94 76 220 209 226 272 150 236 61 265 279 324 9 210 231 130 10 195 190 353 344 134 114 41 141 141 65 359 286 261
40 27 22 16 11 6 3 359 356 354 353 356 113 58 356 345 63 50 165 215 202 209 255 221 204 251 232 278 236 253 268 248 95 140 95 133 103 245 156 197 181 69 336 40 127 156 207
41 32 24 20 13 8 3 359 357 358 357 13 93 19 356 37 48 29 136 199 90 200 91 256 175 210 218 223 247 241 245 326 124 157 171 60 150 218 227 299 155 116 195 153 144 247 219
46 37 32 27 21 17 12 5 359 360 6 348 88 260 359 35 115 334 274 12 30 40 23 5 60 194 47 269 309 239 348 358 72 30 187 203 289 353 321 359 28 204 217 143 124 105 198
48 42 36 33 29 25 20 15 6 2 7 32 73 16 343 48 74 99 16 10 12 33 41 16 12 14 354 326 240 290 313 26 236 176 134 150 182 186 237 213 133 198 202 196 149 200 215
51 44 39 37 34 32 29 25 17 11 11 45 28 36 213 353 13 72 50 9 358 12 15 29 52 40 77 2 331 281 0 350 254 220 141 162 227 225 255 261 206 234 201 198 207 220 236
51 47 42 38 37 36 33 30 29 22 24 73 81 71 14 41 349 50 5 4 45 331 25 349 64 332 290 237 327 301 7 213 231 24 207 226 270 59 272 250 253 266 255 210 229 243 249
52 48 44 39 38 39 36 34 32 35 40 81 30 79 111 331 32 69 14 351 33 324 70 69 7 331 314 352 289 265 237 249 261 305 242 188 246 310 284 238 313 283 228 231 229 223 232
53 48 43 40 39 37 37 35 33 37 40 69 44 31 70 355 67 95 360 354 15 49 268 356 34 36 342 301 275 260 250 253 249 266 210 248 204 219 289 18 264 260 197 173 185 289 237
54 47 43 41 39 37 36 34 35 34 34 51 40 49 92 97 151 88 23 349 341 330 8 298 15 345 312 336 359 345 340 16 65 31 28 236 211 261 256 212 287 233 2 4 110 296 284
51 45 40 39 38 35 33 32 30 30 31 37 36 43 84 117 245 167 169 173 193 319 338 251 354 324 27 77 54 67 287 313 323 345 2 40 253 251 353 271 260 243 322 320 260 282 162
47 44 41 39 36 31 27 25 25 24 24 32 33 27 59 106 246 162 184 186 138 109 202 304 334 358 9 55 84 138 277 244 278 284 297 342 349 249 264 274 288 222 254 200 339 259 180
44 39 38 36 32 28 22 19 19 20 19 24 35 24 31 121 258 201 188 150 109 118 151 255 36 337 38 84 170 203 225 258 289 258 213 175 178 228 116 305 283 192 276 173 206 80 149
41 35 33 30 26 24 19 14 12 12 14 17 27 6 10 101 215 219 227 227 201 184 139 15 192 172 194 109 176 146 225 14 161 266 10 301 189 201 183 223 211 195 206 213 183 164 185